Regional Weather Roundup
Issued by NWS Grand Forks, ND

Home | Current Version | Previous Version | Graphics & Text | Print | Product List | Glossary On
Versions: 1 2 3 4 5 6 7 8 9 10 11 12 13 14 15 16 17 18 19 20 21 22 23 24 25 26 27 28 29 30 31 32 33 34 35 36 37 38 39 40 41 42 43 44 45 46 47 48 49 50
345
ASUS43 KFGF 271310
RWRFGF
PRAIRIE TO PINES  WEATHER ROUNDUP
NATIONAL WEATHER SERVICE EASTERN NORTH DAKOTA/GRAND FORKS ND
800 AM CDT SUN MAY 27 2018

 **SATELLITE DATA USED TO AUGMENT SKY COVER AT AUTOMATED STATIONS**
 *****  WEATHER ACROSS EASTERN NORTH DAKOTA  *****

CITY           SKY/WX    TMP DP  RH WIND       PRES   REMARKS
GRAND FORKS    RAIN      64  62  93 W25G36    29.90R
GRAND FRKS AFB LGT RAIN  66  64  95 NW20G30   29.91R
GRAND FRKS NWS   N/A     64  59  82 W21       29.87R
DEVILS LAKE    LGT RAIN  62  60  93 NE20G26   29.74F
FARGO          LGT RAIN  67  59  75 SE8       29.81F
WAHPETON ARPT  FAIR      63  55  77 S8        29.85F
$$

 ***** WEATHER ACROSS CENTRAL AND WESTERN NORTH DAKOTA  *****

CITY           SKY/WX    TMP DP  RH WIND       PRES   REMARKS
BISMARCK       FAIR      68  58  70 E18G31    29.76F
MINOT          FAIR      63  60  90 N13       29.82R
JAMESTOWN      LGT RAIN  64  61  90 NE9       29.83F
MINOT AFB      FAIR      63  62  98 NE10      29.82R
GARRISON         N/A     62  59  90 NE7       29.78R
WILLISTON      FAIR      64  59  83 W7        29.87R
DICKINSON      FAIR      61  57  87 E6        29.83R
HETTINGER      FAIR      62  55  77 NE17      29.83R
$$

 *****  OTHER AIRPORT OBSERVATIONS IN OUR AREA  *****

CITY           SKY/WX    TMP DP  RH WIND       PRES   REMARKS
WALHALLA       LGT RAIN  63  63 100 W6        29.91F
GRAFTON AIRPOR PTSUNNY   63  63 100 N16       29.92R FOG
VALLEY CITY AR DRIZZLE   63  63 100 NW17G25   29.96R
CANDO          FAIR      63  63 100 NE18G25   29.76F FOG
CAVALIER APRT  LGT RAIN  63  63 100 N9        29.89R
GWINNER          N/A     68  61  77 E7        29.79F
SHEYENNE NWR     N/A     65  61  87 SE6       29.95S
ROLLA          PTSUNNY   61  61 100 N13       29.83R FOG
 ***** THE ABOVE OBSERVATIONS ARE NON NWS ARE NOT QUALITY
       CONTROLLED AND MAY MIS-REPORT RAIN FOR SNOW...
$$

  *****  WEATHER ACROSS NORTHERN MINNESOTA  *****

CITY           SKY/WX    TMP DP  RH WIND       PRES   REMARKS
FLAG ISLAND    FAIR      66  61  82 N3        29.86R
WARROAD        FAIR      66  63  88 CALM      29.88R
ROSEAU         FAIR      63  57  82 NW3       29.88R
HALLOCK        DRIZZLE   64  61  88 W10       29.88R
THF RVR FALLS  FAIR      65  59  81 CALM      29.86R
BAUDETTE         N/A    N/A N/A N/A MISG      29.85R
WASKISH        FAIR      68  63  83 CALM      29.85R
CROOKSTON      LGT RAIN  64  61  88 CALM      29.85R
STEPHEN NDAWN    N/A     63  59  88 N3          N/A
GREENBUSH NDAW   N/A     63  59  88 NE3         N/A
$$
  *****  WEATHER ACROSS CENTRAL AND WEST MINNESOTA  *****

CITY           SKY/WX    TMP DP  RH WIND       PRES   REMARKS
FOSSTON        FAIR      63  57  82 S5        29.88R
BEMIDJI        FAIR      63  60  91 CALM      29.87R
PARK RAPIDS    FAIR      61  57  87 W3        29.89R
ELBOW LAKE     LGT RAIN  66  58  75 NW17G24   29.92R
WADENA         FAIR      59  57  94 CALM      29.89R
DETROIT LAKES  DRIZZLE   70  54  56 W9G18     29.92R
MOORHEAD       RAIN      68  57  68 SW7       29.84R
FERGUS FALLS   RAIN      66  57  72 NE8       29.86S
MORRIS MN      PTSUNNY   70  55  60 N15       29.86R
STAPLES        FAIR      61  57  88 CALM      29.88R
$$
  *****  WEATHER ELSEWHERE ACROSS MINNESOTA  *****

CITY           SKY/WX    TMP DP  RH WIND       PRES   REMARKS
DULUTH         FAIR      73  59  61 CALM      29.84R
INTRNTL FALLS  FAIR      68  62  81 N3        29.84R
ELY            FAIR      64  57  77 W5        29.84R
CLOQUET        FAIR      66  55  68 CALM      29.85R
WHEATON        TSTM      64  61  88 N13       29.91R
BRAINERD       FAIR      67  58  72 CALM      29.86R
HIBBING        FAIR      59  56  89 CALM      29.85R
ALEXANDRIA     PTSUNNY   68  58  70 NW3       29.90R
SAINT CLOUD    FAIR      68  57  68 CALM      29.84R
MINNEAPOLIS    PTSUNNY   76  63  64 CALM      29.82R
$$

  *****  WEATHER ACROSS SOUTH DAKOTA  *****

CITY           SKY/WX    TMP DP  RH WIND       PRES   REMARKS
SIOUX FALLS    PTSUNNY   75  63  66 CALM      29.81R
BROOKINGS      FAIR      70  55  59 SE7       29.83R
WATERTOWN      FAIR      71  54  54 S8        29.79S
HURON          FAIR      72  58  61 S8        29.76R
SISSETON         N/A     67  62  84 VRB5      29.83S
ABERDEEN       FAIR      77  56  48 E9        29.77R
MITCHELL       FAIR      73  62  68 SE6       29.78R
PIERRE         FAIR      70  60  70 SE9       29.71S
MOBRIDGE       FAIR      73  60  63 N13G22    29.72F
RAPID CITY     FAIR      65  55  70 N28G46    29.82S
$$

  *****  SOME WEATHER IN NEARBY STATES *****

CITY           SKY/WX    TMP DP  RH WIND       PRES   REMARKS
GLASGOW MT     FAIR      63  57  81 NW15      29.89R
GREAT FALLS MT FAIR      58  51  78 SW5       30.04S
CHEYENNE WY    FAIR      57  39  51 CALM      29.96R
SCOTTSBLUFF NE FAIR      68  56  65 W7        29.82R
OMAHA NE       FAIR      77  64  64 SE7       29.84R
DES MOINES IA  FAIR      75  70  84 S3        29.83R
DAVENPORT IA   FAIR      76  66  71 S6        29.87R
CHICAGO IL     FAIR      78  68  71 W7        29.86R
EAU CLAIRE WI  FAIR      69  63  81 CALM      29.82R
LA CROSSE WI   FAIR      74  67  78 SE3       29.82R
$$

  *****  SOME NATIONAL WEATHER *****

CITY           SKY/WX    TMP DP  RH WIND       PRES   REMARKS
LA GUARDIA NY  RAIN      61  59  93 NE20      30.00R
RALEIGH NC     CLOUDY    73  71  93 SW12      30.03R
ATLANTA GA     PTSUNNY   74  68  81 E6        29.98S
NEW ORLEANS LA PTSUNNY   78  74  87 NE10      29.84S
OKLAHOMA CITY  PTSUNNY   73  68  84 SE8       29.87S
ALBUQUERQUE NM FAIR      64  20  18 NW7       29.99R
SALT LAKE CITY MOCLDY    59  51  75 SE8       29.89R
LOS ANGELES CA FAIR      58  52  80 CALM      29.94S
BOISE ID       FAIR      52  45  77 CALM      29.97R
SEATTLE WA     FAIR      52  47  83 NE7       30.26F
$$

*** WEATHER ACROSS MANITOBA...SASKATCHEWAN AND ONTARIO ***
                ***ONTARIO***

CITY           SKY/WX    TMP DP  RH WIND       PRES   REMARKS
GERALDTON      CLOUDY    50  50 100 W5        29.80S
THUNDER BAY    FOG       52  52 100 NE3       29.82R VSB 3/8
SIOUX LOOKOUT  CLOUDY    57  57 100 VRB3      29.82R FOG
TORONTO        MOSUNNY   68  61  77 CALM      29.93R
BIG TROUT LK   CLOUDY    48  45  87 SW6       29.75F
PICKLE LAKE    CLOUDY    50  48  93 CALM      29.77F
DRYDEN         SUNNY     63  59  88 NW5       29.83R
KENORA         NOT AVBL
$$
                *** MANITOBA***

CITY           SKY/WX    TMP DP  RH WIND       PRES   REMARKS
BRANDON        LGT RAIN  61  59  94 SE13      29.79F
DAUPHIN        SUNNY     63  61  94 W6        29.79R
ISLAND LAKE    CLOUDY    54  52  94 W5        29.77R
PILOT MOUND      N/A    N/A N/A N/A E16         N/A
THE PAS        PTSUNNY   63  57  82 W5        29.79R
THOMPSON       MOSUNNY   59  52  77 SW9       29.69S
WINNIPEG       CLOUDY    63  59  88 SW6       29.86R
LYNN LAKE      MOSUNNY   55  46  71 W7        29.71R
CHURCHILL      MOSUNNY   54  46  76 SW10      29.50F
GILLAM         PTSUNNY   57  50  77 SW14      29.64F
$$
                ***SASKATCHEWAN***

CITY           SKY/WX    TMP DP  RH WIND       PRES   REMARKS
ESTEVAN        PTSUNNY   63  59  88 SE10      29.87R
KINDERSLEY     CLOUDY    55  41  58 N12       30.01R
LLOYDMINSTER   PTSUNNY   54  43  66 W8        29.99R
PRINCE ALBERT  PTSUNNY   54  48  82 W6        29.93R
REGINA         PTSUNNY   61  57  88 N14G21    29.89R
YORKTON        MOSUNNY   63  59  88 NW17      29.83S
N. BATTLEFORD  CLOUDY    50  46  87 CALM      30.00R
LA RONGE       MOSUNNY   55  46  71 SW7       29.86R
SASKATOON      PTSUNNY   52  48  87 W6        29.98R
SWIFT CURRENT  FOG       54  54 100 N8        29.97R VSB 0
$$
NOTE: THESE ARE AUTOMATED STATIONS WITH LIMITED QUALITY CONTROL
      "FAIR" INDICATES FEW OR NO CLOUDS BELOW 12,000 FEET WITH NO
      SIGNIFICANT WEATHER AND/OR OBSTRUCTIONS TO VISIBILITY.
      SKY/WX - SKY CONDITION AND SIGNIFICANT WEATHER.
      TMP - AIR TEMPERATURE.    DP   - DEWPOINT TEMPERATURE.
      RH  - RELATIVE HUMIDITY.  PRES - PRESSURE.
      HX  - HEAT INDEX.         WCI  - WIND CHILL INDEX.
$




USA.gov is the U.S. government's official web portal to all federal, state and local government web resources and services.